Satellite: COMPASS
Catalog number: 32787
Epoch time:      12157.67411647
Element set:    0322
Inclination:      097.8003 deg
RA of node:       219.2629 deg
Eccentricity:    0.0016285
Arg of perigee:   097.5606 deg
Mean anomaly:     262.7482 deg
Mean motion:   14.83972279 rev/day
Decay rate:      2.617e-05 rev/day^2
Epoch rev:           22210
Checksum:              313

Satellite: AAUSAT2
Catalog number: 32788
Epoch time:      12158.38779729
Element set:     312
Inclination:      097.8018 deg
RA of node:       220.3363 deg
Eccentricity:    0.0015909
Arg of perigee:   095.4485 deg
Mean anomaly:     264.8568 deg
Mean motion:   14.84295249 rev/day
Decay rate:      2.700e-05 rev/day^2
Epoch rev:           22223
Checksum:              331

Satellite: DO-64
Catalog number: 32789
Epoch time:      12157.90737632
Element set:     327
Inclination:      097.8140 deg
RA of node:       221.8449 deg
Eccentricity:    0.0015930
Arg of perigee:   094.4852 deg
Mean anomaly:     265.8171 deg
Mean motion:   14.85757920 rev/day
Decay rate:      4.135e-05 rev/day^2
Epoch rev:           22220
Checksum:              321

Satellite: CO-66
Catalog number: 32791
Epoch time:      12157.65919571
Element set:    0313
Inclination:      097.8020 deg
RA of node:       218.9999 deg
Eccentricity:    0.0016830
Arg of perigee:   097.9353 deg
Mean anomaly:     262.3821 deg
Mean motion:   14.83392492 rev/day
Decay rate:      1.765e-05 rev/day^2
Epoch rev:           22203
Checksum:              333

Satellite: RS-30
Catalog number: 32953
Epoch time:      12158.82641211
Element set:     843
Inclination:      082.5006 deg
RA of node:       301.5800 deg
Eccentricity:    0.0018186
Arg of perigee:   333.8295 deg
Mean anomaly:     026.1869 deg
Mean motion:   12.43024289 rev/day
Decay rate:        1.0e-07 rev/day^2
Epoch rev:           18327
Checksum:              277

Satellite: TACSAT-3
Catalog number: 35001
Epoch time:      12121.72616188
Element set:    0001
Inclination:      040.4259 deg
RA of node:       351.8840 deg
Eccentricity:    0.0007146
Arg of perigee:   275.2650 deg
Mean anomaly:     085.0693 deg
Mean motion:   16.45157000 rev/day
Decay rate:  1.5204951e-01 rev/day^2
Epoch rev:           16699
Checksum:              280

Satellite: PHARMSAT
Catalog number: 35002
Epoch time:      12157.96524924
Element set:    0924
Inclination:      040.4568 deg
RA of node:       139.1741 deg
Eccentricity:    0.0006832
Arg of perigee:   160.1824 deg
Mean anomaly:     200.0419 deg
Mean motion:   15.82626312 rev/day
Decay rate:    1.37550e-03 rev/day^2
Epoch rev:           17254
Checksum:              274

Satellite: METEOR-M
Catalog number: 35865
Epoch time:      12158.66410313
Element set:     475
Inclination:      098.6560 deg
RA of node:       213.1873 deg
Eccentricity:    0.0003405
Arg of perigee:   082.9171 deg
Mean anomaly:     277.2389 deg
Mean motion:   14.21863307 rev/day
Decay rate:       -1.4e-07 rev/day^2
Epoch rev:           14110
Checksum:              280

Satellite: RS-38
Catalog number: 35869
Epoch time:      12158.68681318
Element set:     483
Inclination:      098.6505 deg
RA of node:       213.2057 deg
Eccentricity:    0.0005555
Arg of perigee:   082.2748 deg
Mean anomaly:     277.9061 deg
Mean motion:   14.22072727 rev/day
Decay rate:        3.2e-07 rev/day^2
Epoch rev:           14112
Checksum:              310

Satellite: JUGNU
Catalog number: 37839
Epoch time:      12157.93497370
Element set:    0161
Inclination:      019.9606 deg
RA of node:       066.3935 deg
Eccentricity:    0.0020321
Arg of perigee:   099.7662 deg
Mean anomaly:     260.4994 deg
Mean motion:   14.12058464 rev/day
Decay rate:       6.20e-06 rev/day^2
Epoch rev:           03365
Checksum:              309

Satellite: SRMSAT
Catalog number: 37841
Epoch time:      12157.90340637
Element set:     161
Inclination:      019.9710 deg
RA of node:       071.2616 deg
Eccentricity:    0.0011701
Arg of perigee:   068.4107 deg
Mean anomaly:     291.7576 deg
Mean motion:   14.10142236 rev/day
Decay rate:       2.64e-06 rev/day^2
Epoch rev:            3359
Checksum:              267

Satellite: RAX-2
Catalog number: 37853
Epoch time:      12158.57338924
Element set:     196
Inclination:      101.7152 deg
RA of node:       193.9243 deg
Eccentricity:    0.0247146
Arg of perigee:   021.1957 deg
Mean anomaly:     339.9269 deg
Mean motion:   14.79965231 rev/day
Decay rate:      6.087e-05 rev/day^2
Epoch rev:            3282
Checksum:              332

Satellite: AUBIESAT
Catalog number: 37854
Epoch time:      12158.86881027
Element set:     197
Inclination:      101.7151 deg
RA of node:       194.5867 deg
Eccentricity:    0.0247625
Arg of perigee:   019.9236 deg
Mean anomaly:     341.1437 deg
Mean motion:   14.80342593 rev/day
Decay rate:      6.921e-05 rev/day^2
Epoch rev:            3286
Checksum:              320

Satellite: HRBE
Catalog number: 37855
Epoch time:      12157.93515433
Element set:    0207
Inclination:      101.7187 deg
RA of node:       193.1911 deg
Eccentricity:    0.0248695
Arg of perigee:   022.5346 deg
Mean anomaly:     338.6557 deg
Mean motion:   14.80189942 rev/day
Decay rate:      6.085e-05 rev/day^2
Epoch rev:           03272
Checksum:              316

Satellite: RS-39
Catalog number: 38051
Epoch time:      12158.87908565
Element set:     400
Inclination:      051.6350 deg
RA of node:       208.9531 deg
Eccentricity:    0.0012633
Arg of perigee:   002.1145 deg
Mean anomaly:     352.5016 deg
Mean motion:   15.24154072 rev/day
Decay rate:      9.506e-05 rev/day^2
Epoch rev:            2039
Checksum:              270

Satellite: E-STAR
Catalog number: 38079
Epoch time:      12158.83908563
Element set:     273
Inclination:      069.4939 deg
RA of node:       339.3143 deg
Eccentricity:    0.0747467
Arg of perigee:   260.9524 deg
Mean anomaly:     090.6279 deg
Mean motion:   14.14217464 rev/day
Decay rate:     2.4521e-04 rev/day^2
Epoch rev:            1612
Checksum:              326

Satellite: GOLIAT
Catalog number: 38085
Epoch time:      12157.90351288
Element set:     250
Inclination:      069.4918 deg
RA of node:       341.6738 deg
Eccentricity:    0.0752417
Arg of perigee:   262.2342 deg
Mean anomaly:     089.2932 deg
Mean motion:   14.13215935 rev/day
Decay rate:     2.5298e-04 rev/day^2
Epoch rev:            1598
Checksum:              322

Satellite: HORYU-2
Catalog number: 38340
Epoch time:      12158.95660614
Element set:      24
Inclination:      098.1764 deg
RA of node:       098.6634 deg
Eccentricity:    0.0013197
Arg of perigee:   008.7013 deg
Mean anomaly:     351.4437 deg
Mean motion:   14.69960263 rev/day
Decay rate:      1.536e-05 rev/day^2
Epoch rev:             297
Checksum:              306

/EX




More information about the Keps mailing list